Theta_e
314 314 320 320 323 323 322 328 327 332 330 327 327 325 323 323 327 328 327 327 331 331 328 333 335 335 335 337 342 340 338 342 343 345 346 338 336 338 336 338 337 332 328 330 333 332 334 335 336 337 336 336 336 336 336 336 337 337 337 337 335 334 335 336 334 333 333 333 332 332 332 332 332 332 332 332 332 332 331 331 331 331 332 332 332 332 333 333 333 331 329 330 331 331 331 330 329
314 317 323 320 323 320 324 332 331 339 338 326 325 325 320 321 325 330 334 330 331 334 334 337 339 337 336 336 338 339 338 338 335 338 340 335 339 338 337 338 335 331 329 332 334 333 334 335 336 337 335 334 335 336 336 336 337 337 337 337 335 333 333 335 334 333 332 331 332 333 332 332 331 331 331 331 331 331 331 332 331 331 332 332 331 331 332 333 332 330 330 331 331 331 330 329 328
314 319 323 321 322 321 329 331 329 337 332 324 330 328 320 323 330 336 336 331 331 335 335 335 341 339 339 343 338 340 340 335 335 337 338 338 339 337 338 336 333 330 329 333 334 333 333 334 335 334 333 333 334 336 337 337 337 337 337 337 336 333 333 334 334 332 331 330 331 332 331 330 331 331 331 331 331 331 331 331 331 331 331 331 331 331 331 332 331 330 331 331 330 329 329 327 324
316 320 321 321 322 328 342 334 335 335 323 324 327 325 326 329 333 334 331 330 334 336 332 333 342 334 339 350 338 339 340 335 338 338 338 338 338 338 337 335 333 329 330 334 333 332 332 333 333 333 332 332 334 336 336 336 337 337 337 336 335 334 334 333 333 332 331 331 331 330 330 330 332 332 331 330 330 330 330 330 330 331 330 330 330 330 330 331 331 330 331 331 330 329 329 327 325
318 321 318 320 322 329 339 329 333 329 322 329 320 321 335 334 331 329 327 328 329 328 326 333 342 334 335 342 336 340 340 337 338 337 339 338 338 338 336 336 332 328 331 333 332 332 332 333 335 334 332 331 334 335 335 337 337 335 334 334 334 334 333 333 332 331 332 333 331 331 331 331 331 330 329 330 330 330 330 330 330 330 330 329 329 330 330 331 330 330 330 330 329 329 328 328 327
320 320 317 318 318 320 327 321 323 327 331 333 320 328 338 332 329 329 327 323 325 324 325 335 342 339 338 338 334 338 337 337 339 337 339 338 338 337 336 336 330 328 330 332 332 333 334 334 335 335 332 332 334 334 336 337 336 334 332 331 332 333 332 332 331 329 331 332 331 331 332 331 331 329 328 329 329 329 330 330 330 329 329 329 329 329 329 330 330 330 330 330 329 327 328 328 327
320 319 321 321 318 322 331 327 330 335 330 325 323 333 333 329 328 329 326 320 325 327 331 337 339 343 341 336 335 335 334 336 337 337 338 338 337 336 336 334 329 327 330 332 333 334 334 334 334 334 332 334 335 336 337 336 335 333 331 329 327 330 331 331 330 329 330 331 330 331 332 332 331 330 328 329 330 330 330 330 330 329 329 329 329 329 330 330 330 329 329 329 328 328 328 328 327
320 320 325 328 327 330 335 329 334 337 322 317 323 329 328 327 327 326 326 325 325 329 338 337 335 345 339 335 340 335 333 335 337 338 337 337 336 336 336 332 325 326 331 332 333 334 334 334 333 331 332 333 334 335 336 334 334 331 331 328 324 328 331 330 330 330 330 330 330 331 331 329 328 330 329 328 329 330 330 329 329 329 328 328 328 329 329 330 330 329 328 328 327 327 328 327 327
318 319 324 327 326 329 333 328 325 327 324 320 320 326 327 323 323 324 326 326 326 335 340 334 332 338 339 340 344 335 333 337 337 338 338 337 335 335 335 328 319 322 329 332 333 333 334 333 330 331 331 331 332 334 335 333 332 331 330 325 322 327 330 329 330 329 329 328 330 331 330 326 324 330 330 327 327 328 329 329 329 329 329 328 328 328 329 329 329 329 327 326 326 326 327 326 326
318 319 323 328 327 322 324 330 326 322 322 322 321 325 328 323 321 323 326 324 328 340 335 331 335 336 340 343 340 335 334 337 337 338 337 335 335 335 333 326 316 318 327 331 332 333 334 333 329 331 331 330 333 334 334 332 332 330 327 324 325 328 329 329 329 329 328 328 330 331 330 327 325 330 331 329 328 326 327 328 328 328 328 328 328 328 328 329 329 328 327 325 325 325 325 326 326
323 323 328 330 328 320 320 331 337 333 324 322 323 323 325 323 321 321 325 323 326 336 330 332 342 340 340 340 337 335 334 337 338 338 337 335 335 334 331 323 316 317 325 330 332 332 333 332 330 331 331 331 333 334 334 332 331 328 324 327 329 329 329 329 329 328 328 328 329 331 330 329 328 328 328 328 329 326 325 327 327 328 328 328 327 326 326 327 328 328 326 324 324 324 324 325 325
323 328 337 333 327 324 324 329 335 341 333 325 324 322 323 320 320 322 325 326 327 334 333 334 340 340 341 339 337 334 334 338 337 337 337 336 335 333 330 321 316 317 324 329 331 332 332 332 331 332 333 332 332 332 332 330 330 326 323 328 330 329 330 329 329 328 328 327 328 330 330 330 329 327 326 326 327 326 326 326 327 328 328 328 326 326 326 326 327 327 326 324 324 324 324 324 324
328 331 334 326 324 325 324 326 328 333 332 329 325 320 319 319 320 324 327 327 331 335 332 331 335 341 343 338 336 334 335 338 336 338 338 337 334 334 331 321 315 317 322 328 331 331 332 332 331 332 332 332 333 332 331 330 328 326 324 326 329 329 330 329 328 328 327 328 328 329 329 328 329 330 327 325 325 326 326 323 324 326 326 327 327 326 326 325 325 325 325 324 324 324 324 323 323
328 332 332 323 322 327 326 325 324 324 325 328 323 317 317 319 322 325 327 328 333 332 326 326 333 342 340 337 338 335 336 337 337 338 337 337 334 335 334 323 315 316 321 326 330 330 330 331 331 331 329 330 332 331 329 327 325 325 324 324 327 328 329 328 327 326 327 329 327 327 328 326 328 330 328 325 325 327 326 322 323 325 325 325 325 325 325 322 322 323 324 324 324 324 324 323 323
323 331 336 330 323 326 326 322 322 323 327 327 318 318 319 317 321 325 325 328 330 324 324 328 329 333 335 343 346 335 335 337 337 338 337 337 335 337 336 327 316 315 321 326 328 329 329 330 330 329 327 327 328 326 324 322 322 325 324 322 323 325 326 326 326 326 326 327 325 326 326 325 327 328 327 327 327 328 328 325 325 325 323 321 320 322 323 320 320 321 322 323 323 323 324 324 323
324 331 333 330 324 322 322 320 322 323 328 326 314 317 322 315 317 322 319 323 329 323 328 334 326 326 331 341 343 333 334 337 337 338 337 337 337 337 336 329 317 315 321 325 328 329 328 328 328 327 325 324 323 322 321 320 321 325 326 324 321 320 322 324 325 325 325 324 322 322 323 323 324 325 326 326 326 327 328 327 327 323 319 318 317 319 320 319 320 320 320 321 321 322 323 323 323
322 330 329 326 325 322 323 322 321 323 327 325 314 315 324 318 313 315 316 325 336 330 333 334 325 328 332 333 332 331 336 336 337 338 337 337 336 333 333 328 320 319 322 324 326 327 327 327 326 324 324 322 321 321 320 319 322 325 326 324 322 319 318 319 322 323 324 323 323 321 320 320 320 322 323 324 325 326 327 326 324 318 314 314 315 315 317 318 320 320 321 321 321 321 322 322 322
323 331 327 324 328 327 326 326 323 322 322 320 315 316 322 320 314 314 319 331 337 331 333 335 331 331 330 328 330 333 336 336 337 338 337 336 334 333 331 326 322 320 322 321 322 323 324 324 323 322 322 322 320 320 320 318 320 324 324 322 320 318 316 316 317 320 322 322 322 321 319 318 317 317 319 321 323 323 323 321 318 313 312 312 312 313 314 316 319 319 320 320 321 321 321 321 322
327 328 323 327 333 328 324 323 321 319 318 318 317 316 318 319 318 316 320 330 334 334 335 336 338 336 332 330 332 334 334 336 337 337 337 336 334 333 331 327 323 320 320 319 317 318 318 319 320 319 320 321 320 320 319 318 318 320 321 320 319 318 317 315 314 316 318 320 320 319 318 317 315 315 315 316 316 316 315 314 311 310 310 309 310 312 313 314 317 318 318 319 319 320 320 320 321
326 322 322 331 328 325 324 321 320 318 317 318 319 316 315 317 317 317 323 332 335 337 335 335 340 340 337 333 331 333 334 335 337 337 337 335 335 334 332 328 324 321 318 317 315 315 315 316 317 316 317 319 319 319 319 318 317 318 319 319 319 318 316 314 314 316 316 316 317 316 316 315 314 313 312 312 312 311 311 310 310 309 308 308 309 311 312 313 315 316 317 319 319 319 319 319 319
320 318 325 327 319 320 323 321 319 317 316 317 320 317 315 315 315 318 326 332 333 333 331 333 339 341 339 333 330 332 333 335 336 337 337 336 336 334 333 330 326 321 318 317 316 316 315 315 316 315 316 316 318 318 318 318 318 317 317 317 317 317 315 314 316 319 317 315 315 316 316 317 316 315 314 312 311 310 310 310 310 309 309 310 309 309 312 313 314 315 316 318 319 320 320 320 319
317 318 322 320 316 316 318 319 315 314 314 315 319 317 316 315 313 320 327 327 326 327 326 329 336 339 338 332 330 332 332 335 336 336 337 336 336 335 334 332 328 324 320 318 317 317 317 316 316 316 315 315 316 316 317 317 317 318 317 316 316 315 315 313 316 322 322 318 318 319 320 321 321 320 319 316 314 313 313 312 311 311 311 312 311 309 311 312 313 313 315 317 318 318 319 320 320
320 320 317 316 315 313 316 316 313 314 315 317 320 316 315 315 314 320 325 322 319 317 318 325 332 332 333 331 330 332 332 334 335 336 337 336 336 336 335 334 331 328 323 320 319 319 318 318 317 316 316 315 315 315 315 315 316 317 317 317 316 316 315 315 316 322 325 322 322 322 323 324 323 323 322 319 318 318 319 318 315 315 314 314 313 312 311 312 311 311 313 314 315 315 317 318 318
318 319 316 313 312 311 314 314 313 314 315 317 317 313 315 317 316 319 322 322 318 314 314 319 326 328 330 331 331 331 332 333 335 335 336 336 336 336 336 335 333 331 327 322 320 319 319 319 318 318 317 316 316 315 315 315 315 316 316 317 317 317 317 316 317 321 325 326 325 325 325 325 325 325 324 323 322 321 322 322 321 321 320 319 318 316 315 315 314 314 314 314 314 314 315 316 316
313 314 313 311 311 311 312 313 314 315 316 314 312 314 317 315 315 318 320 320 318 320 321 323 327 330 331 332 332 330 331 332 334 335 335 336 335 336 336 335 334 333 330 326 323 322 323 322 320 320 319 318 318 317 316 316 315 315 315 316 317 317 317 317 317 319 323 326 327 327 326 326 326 326 326 326 325 323 323 324 324 323 323 323 322 321 320 320 319 319 318 318 317 316 316 316 317
312 312 310 310 312 312 311 313 314 314 315 312 312 317 315 311 311 317 318 318 323 328 331 333 331 333 333 332 332 330 330 331 332 333 334 336 335 336 336 335 335 334 332 330 326 326 327 326 325 324 323 321 320 319 318 318 318 317 316 316 316 317 317 317 317 317 319 322 325 327 327 327 327 327 327 327 326 325 324 325 325 324 324 324 324 324 323 323 322 322 321 321 320 320 319 319 319
313 313 312 310 312 312 312 314 313 313 313 312 315 316 314 310 311 317 315 319 333 341 336 333 333 335 333 332 332 330 330 330 332 333 333 334 335 335 335 335 335 334 333 332 330 330 331 330 329 328 328 326 324 324 322 321 321 320 320 319 318 317 317 316 316 317 317 318 321 324 327 327 327 326 326 327 326 325 324 325 326 326 325 325 325 325 324 324 324 324 323 323 322 322 323 322 322
314 315 316 314 312 312 313 314 314 313 312 313 314 313 313 310 312 317 313 317 331 346 340 331 333 334 332 333 332 330 329 330 331 332 332 333 333 334 334 334 334 334 333 333 333 333 333 333 332 332 332 330 328 329 328 326 326 326 327 326 324 321 318 319 320 318 317 318 320 322 325 326 325 325 326 327 326 325 324 326 327 326 326 326 326 325 325 325 325 325 324 324 324 324 324 324 324
317 315 318 319 314 313 315 315 315 313 312 313 312 313 314 311 314 315 313 318 328 342 341 332 332 333 332 333 331 330 329 330 331 330 332 332 333 334 334 334 334 333 333 333 335 335 335 335 334 334 334 333 332 333 333 331 331 331 332 331 330 326 321 324 326 325 323 323 325 325 326 326 326 326 327 328 327 326 325 326 327 326 327 326 326 326 325 325 325 325 325 325 325 324 324 325 325
322 318 317 319 318 317 314 312 313 313 313 313 312 317 319 315 314 312 317 325 331 340 340 329 330 332 331 332 331 331 328 328 329 329 332 332 333 334 333 335 334 334 334 334 335 335 336 335 335 336 335 335 334 335 334 333 333 333 333 333 332 329 326 326 328 329 329 328 329 329 328 328 328 328 328 329 328 327 326 326 326 326 327 326 326 326 326 326 325 325 325 325 325 325 325 325 325
325 325 320 319 325 326 317 314 314 312 313 312 311 316 319 317 315 311 318 328 332 338 340 329 330 331 329 331 330 331 329 328 329 329 331 331 332 333 333 334 334 334 335 334 335 335 335 335 336 336 336 336 336 336 335 335 334 333 334 334 333 332 330 328 329 330 330 330 330 330 330 329 329 329 329 329 328 327 327 326 326 326 326 326 326 326 326 326 325 326 326 326 325 325 325 325 325
325 329 329 323 325 326 318 316 315 312 312 311 311 316 317 315 317 311 315 326 330 331 337 331 330 331 329 330 330 331 330 327 329 329 330 330 331 332 332 333 333 334 335 335 335 335 335 335 336 336 336 336 336 336 336 335 335 334 335 334 334 334 332 331 331 331 331 331 330 330 330 330 329 329 329 329 328 328 327 326 326 326 326 326 325 325 326 326 326 326 326 326 325 324 325 325 325
324 326 330 323 322 321 315 314 315 314 312 311 311 316 318 314 315 311 310 325 332 328 333 332 330 331 329 330 329 330 330 328 328 328 329 330 330 331 331 332 333 334 334 335 335 335 336 335 335 336 335 336 336 336 336 336 336 335 335 335 335 334 334 333 332 332 332 331 331 330 330 330 330 330 330 330 329 329 328 327 326 326 326 325 324 324 324 325 326 326 326 326 325 325 326 325 323
327 324 324 320 317 317 315 315 314 312 312 312 312 313 317 314 314 312 308 318 329 329 329 330 329 329 328 329 329 329 329 330 328 328 329 329 330 331 331 331 332 333 334 334 335 335 335 335 335 335 335 335 335 336 336 336 336 336 336 335 335 335 335 334 333 333 333 332 331 331 331 331 331 331 330 330 330 329 329 328 326 325 325 325 325 324 323 323 324 324 325 325 324 325 325 324 323
331 325 322 319 316 314 313 313 312 312 312 313 314 312 314 313 313 315 309 311 323 327 322 324 327 328 328 328 329 329 329 329 328 327 329 329 329 330 330 331 331 332 332 333 334 334 334 334 334 334 335 335 335 336 336 336 336 336 336 335 335 335 335 334 334 333 333 332 331 331 331 331 331 331 330 331 330 330 329 328 327 326 326 326 326 326 324 323 322 323 324 324 324 324 324 324 325
330 324 320 318 316 315 312 311 313 312 311 313 314 314 313 313 312 314 311 310 317 320 317 319 324 325 326 326 327 328 328 328 327 326 328 328 329 329 330 330 330 331 331 331 332 333 333 333 333 333 334 334 335 335 335 336 336 336 336 335 335 335 335 334 334 334 333 332 332 332 332 332 332 331 331 331 330 330 329 328 328 327 327 327 327 327 326 324 322 323 324 324 324 324 324 325 326
321 320 319 317 315 314 312 311 314 312 311 313 314 314 314 313 313 313 313 311 312 314 315 317 318 320 323 324 324 325 326 326 324 325 326 326 328 329 329 330 330 330 330 330 331 331 332 332 332 332 333 333 334 335 335 335 335 335 334 335 335 335 335 335 334 334 333 332 332 331 331 331 331 331 331 331 331 331 330 329 329 328 328 328 328 328 327 326 325 324 325 325 325 326 326 326 327
318 319 319 317 315 315 312 311 313 312 311 313 313 313 314 313 312 313 314 313 314 313 314 316 315 315 317 319 321 321 321 321 320 320 322 324 326 327 329 329 329 330 330 330 330 330 331 331 331 331 332 332 333 333 334 334 334 334 334 334 335 335 335 335 334 334 334 333 332 330 330 329 328 329 329 329 330 330 330 330 329 329 328 328 328 328 327 327 326 326 327 326 326 326 326 327 327
322 323 321 319 316 314 314 312 312 311 311 314 314 312 313 312 311 312 313 314 315 312 311 313 313 312 312 314 317 317 318 318 317 316 317 320 323 324 327 329 329 330 330 330 330 330 331 330 331 331 331 332 332 332 332 333 333 333 334 334 334 335 335 335 335 334 334 333 332 331 331 330 329 328 329 329 328 328 328 327 327 327 327 327 327 326 326 325 326 327 327 327 327 327 326 326 325
325 325 323 320 316 314 315 314 312 312 311 312 313 313 313 312 311 312 312 312 313 312 312 312 312 312 311 310 312 313 315 316 316 315 314 315 319 322 325 327 328 329 329 330 330 330 330 330 331 331 331 332 332 332 332 332 332 333 334 334 334 334 334 334 335 334 334 334 333 333 332 332 331 330 329 329 328 327 328 327 326 327 326 326 326 326 325 325 327 328 328 328 327 326 325 324 324
325 323 323 321 316 312 312 312 311 313 313 310 311 314 314 313 313 313 312 311 310 310 312 312 312 312 310 309 310 311 312 312 314 315 313 312 315 320 323 325 327 328 329 329 330 330 330 330 331 331 331 332 332 332 332 332 332 333 333 333 333 334 334 333 334 334 334 333 333 333 332 331 332 331 329 327 328 329 330 329 329 329 328 326 325 325 326 328 328 328 328 327 327 325 323 323 323
325 322 321 318 314 310 309 311 312 315 317 313 312 315 318 319 318 315 313 312 310 309 310 312 312 310 309 309 310 310 310 309 310 311 310 310 312 317 320 323 325 327 328 329 329 330 330 330 331 331 331 332 332 332 332 332 332 332 332 333 332 332 333 333 333 333 333 333 333 331 329 329 330 330 330 330 329 328 328 329 330 330 328 327 326 326 327 329 328 327 326 326 326 325 323 322 322
326 323 318 314 313 311 311 311 312 315 319 316 312 314 319 322 320 318 316 313 312 312 311 311 310 309 309 310 310 310 309 309 309 309 308 308 310 313 317 321 324 326 327 327 329 329 330 330 330 331 331 332 332 332 332 332 332 332 332 332 332 332 332 332 332 332 332 332 332 331 329 329 330 330 330 330 329 327 328 330 330 328 328 328 328 328 328 327 326 326 325 324 324 324 323 322 321
325 321 318 314 313 313 312 311 312 316 317 315 312 312 315 316 316 319 316 312 313 312 311 312 310 309 309 309 309 309 310 309 309 309 309 307 307 310 314 318 322 324 325 327 328 329 329 330 330 331 331 331 332 332 332 332 332 332 332 332 332 332 332 332 332 331 331 331 331 331 330 330 330 330 330 329 329 329 330 330 328 326 327 327 326 326 326 325 324 324 323 322 322 321 321 320 319
321 317 317 314 313 313 311 311 313 315 314 315 314 313 314 316 319 319 313 312 315 313 312 312 311 311 310 309 309 309 309 309 309 310 309 305 305 308 312 315 319 322 324 326 328 328 328 329 330 330 331 331 332 332 332 332 332 332 332 332 332 332 332 332 332 332 332 331 331 330 330 329 329 329 329 328 328 328 327 327 326 325 325 324 324 324 323 323 323 322 321 321 320 319 319 318 318
317 316 317 316 318 318 314 313 312 312 314 316 315 314 315 318 322 319 312 313 315 313 313 312 310 311 310 310 310 309 309 309 309 309 306 303 304 307 309 312 316 320 323 325 327 328 329 329 330 330 331 331 332 332 332 332 332 332 332 332 332 332 332 332 332 332 331 331 330 330 330 329 329 327 327 328 327 326 325 324 323 323 323 322 322 321 321 321 321 320 320 319 318 318 318 317 317
316 318 319 319 321 320 321 320 315 314 317 316 315 315 313 316 320 317 314 315 315 314 314 312 311 312 311 311 311 310 310 310 310 309 304 301 303 305 306 309 312 316 321 324 326 327 328 329 329 330 331 331 332 332 332 332 332 332 332 332 332 332 332 332 332 331 331 330 330 330 329 329 329 327 327 328 326 324 324 322 321 322 321 321 320 320 320 320 318 318 317 317 316 316 315 314 314
319 319 320 322 320 320 323 321 316 318 319 317 316 315 312 313 317 316 315 315 315 314 315 315 315 314 311 311 311 310 311 310 310 311 307 303 304 305 305 307 309 313 318 321 324 326 327 328 329 329 330 331 331 331 331 332 332 332 332 332 332 332 332 332 332 332 331 330 329 330 329 329 329 329 328 326 324 323 323 323 322 322 320 320 320 319 318 317 316 315 314 314 313 312 312 311 310
319 319 320 323 321 320 322 320 317 320 318 313 312 312 312 313 315 316 315 315 315 312 312 315 316 316 314 313 313 311 311 311 309 309 309 309 308 305 304 307 309 312 316 319 323 325 326 328 328 329 330 330 331 331 331 331 331 332 332 332 332 332 332 332 332 332 331 330 330 329 329 329 329 328 327 325 323 323 324 323 321 320 319 319 317 315 314 314 313 313 312 311 309 309 308 307 306
317 317 319 322 321 322 323 320 320 321 319 313 309 310 315 316 316 317 315 315 316 312 309 311 313 314 314 313 312 311 311 312 310 309 310 311 308 304 305 307 309 312 315 318 321 324 325 327 328 329 330 330 330 330 331 331 331 331 331 332 332 332 332 332 332 332 331 330 330 329 328 328 328 327 326 324 323 323 323 322 320 319 318 316 314 312 310 310 309 309 308 307 306 305 303 301 299
316 316 317 319 321 322 323 322 321 321 319 314 310 313 320 322 319 316 313 314 316 313 310 311 312 311 310 310 312 313 315 314 311 311 312 311 306 305 306 307 308 311 314 317 320 322 324 325 327 328 329 329 329 330 330 330 330 331 331 331 331 332 331 332 331 331 331 330 329 329 328 327 327 326 324 323 323 322 322 321 320 317 315 312 311 309 307 307 306 305 304 302 301 299 298 296 294
315 314 315 317 320 321 320 319 318 317 318 315 312 317 322 320 315 312 312 314 315 314 314 315 317 314 313 317 321 320 318 316 314 313 314 311 304 305 307 306 308 310 312 315 317 320 322 324 326 327 328 329 329 329 329 330 330 330 331 331 331 331 331 331 331 330 330 330 329 329 328 327 326 325 323 322 322 321 321 320 317 313 310 309 308 306 305 303 301 299 298 297 295 294 294 293 293
316 313 315 316 318 317 316 315 313 312 316 317 314 316 317 315 314 314 315 315 314 313 313 315 318 317 318 323 323 321 320 318 315 314 315 310 304 305 307 307 308 309 310 313 314 316 319 321 323 325 326 327 328 329 329 329 330 330 330 330 330 330 331 330 330 330 330 329 328 328 327 326 324 323 322 321 320 320 319 316 312 309 307 306 305 303 301 299 297 295 295 294 294 293 293 293 292
315 315 316 313 314 315 314 315 315 313 316 319 317 315 314 315 318 317 314 313 314 314 313 312 313 316 321 322 320 321 320 317 315 315 313 308 303 305 308 308 309 310 310 311 311 312 314 316 319 321 323 325 326 327 329 329 330 330 330 330 330 330 330 331 331 330 329 328 327 326 325 324 322 322 321 320 319 318 315 311 308 307 306 304 302 299 297 295 294 294 294 293 293 293 292 292 291
314 317 316 314 317 317 314 315 317 316 315 319 319 314 312 315 320 318 313 313 317 315 313 314 313 316 319 319 318 319 318 317 317 317 316 310 304 305 309 310 311 311 311 311 310 310 311 312 314 317 319 321 323 325 327 328 329 329 330 330 329 330 330 330 330 329 328 327 325 324 323 322 321 320 319 318 317 315 311 308 306 305 304 301 299 296 294 294 294 294 294 293 292 292 292 292 291
312 313 314 315 317 318 317 315 316 317 316 319 319 315 315 317 319 320 315 315 318 315 314 315 313 313 316 316 318 321 321 319 318 317 317 312 304 304 309 310 312 312 312 312 312 311 310 310 311 314 316 318 320 322 324 326 326 327 328 328 329 329 329 329 329 328 327 325 324 323 322 322 321 319 318 316 314 310 307 306 305 303 300 298 295 294 293 293 293 293 293 292 292 291 291 291 290
313 313 313 314 313 316 319 315 315 317 316 318 316 315 322 323 317 316 316 316 318 316 313 313 312 314 317 318 318 320 319 317 314 313 316 310 302 303 308 309 311 312 312 312 311 311 311 310 310 313 315 316 318 320 323 324 325 326 327 327 328 328 327 327 327 326 326 324 323 322 322 321 319 317 316 313 309 307 305 304 302 299 296 294 294 293 293 293 293 293 292 291 291 290 290 290 289
314 314 314 315 314 316 318 317 316 314 313 318 316 313 323 326 315 311 311 314 316 314 312 313 314 315 316 317 317 317 316 315 313 312 313 308 301 302 305 307 310 312 311 311 311 310 310 309 311 312 314 317 319 320 322 323 324 324 325 326 326 326 326 325 324 324 323 322 322 322 321 319 316 315 312 309 306 305 303 300 297 295 294 293 293 293 293 292 292 292 291 291 290 290 290 289 289
Wind_Speed
3 3 1 1 2 2 2 3 2 3 4 2 2 0 2 2 1 2 2 0 0 1 1 1 3 4 3 3 6 6 3 2 4 4 2 3 12 19 17 14 16 16 16 16 15 15 14 12 8 7 7 8 9 10 9 9 10 11 11 11 12 13 12 11 11 13 14 14 14 14 14 15 15 15 15 15 15 16 16 16 16 16 16 15 15 16 16 16 15 15 16 16 16 16 16 16 16
3 2 2 2 3 2 1 3 3 3 5 2 3 2 3 2 1 5 6 3 3 2 2 4 5 5 4 5 6 5 2 2 3 3 2 8 15 15 15 17 18 16 17 17 15 16 15 13 10 8 8 9 9 9 9 9 10 11 11 12 13 13 13 12 11 12 14 14 13 14 14 14 14 14 15 14 15 15 15 15 15 16 16 15 15 16 16 16 15 16 16 15 15 15 15 15 16
2 1 2 1 3 4 1 4 2 1 4 1 4 4 2 1 5 6 7 6 5 5 4 3 4 3 4 5 4 3 1 1 4 2 4 12 12 13 17 19 18 16 17 17 16 16 16 13 10 8 7 9 9 10 10 10 11 12 11 11 12 12 13 12 12 12 12 13 13 13 13 14 14 14 14 14 14 14 15 14 15 15 15 15 15 16 16 15 15 15 15 14 14 14 14 15 15
2 1 2 1 2 4 4 4 2 4 1 2 2 4 3 4 7 5 6 6 6 5 2 1 3 2 3 4 1 2 1 2 3 2 6 11 11 15 20 18 17 16 17 17 16 16 16 15 12 9 8 9 10 10 11 11 11 12 12 12 11 11 12 12 11 12 12 12 12 12 13 13 13 13 13 13 13 14 14 14 14 14 14 15 15 15 15 15 14 14 15 14 14 14 14 14 14
3 3 3 2 2 2 3 3 2 3 1 4 0 4 5 6 6 5 3 4 5 2 1 1 2 2 2 3 1 1 1 3 4 4 8 10 13 18 19 18 17 17 17 16 16 17 16 15 13 11 10 10 11 11 12 12 12 12 13 12 11 11 11 11 11 12 11 11 12 12 12 12 11 12 13 12 13 14 13 13 14 14 14 14 14 15 14 14 14 13 14 14 13 13 13 13 13
5 5 6 6 3 1 3 1 1 1 4 5 2 5 6 6 6 6 4 2 3 2 3 1 3 2 2 1 1 3 3 4 5 7 11 13 16 18 18 18 17 17 17 17 19 18 15 15 13 11 11 11 12 12 11 12 12 11 11 10 11 12 10 10 11 11 11 11 11 11 11 11 11 12 13 12 13 13 13 13 14 14 14 14 14 14 13 14 13 13 13 13 12 13 13 12 12
4 3 5 6 2 2 3 1 3 3 4 5 4 5 5 7 6 7 5 2 2 1 2 1 3 6 2 1 1 2 4 6 7 11 14 15 18 18 19 18 17 18 18 19 20 17 15 15 13 11 11 11 11 11 11 11 10 9 9 9 10 11 11 10 10 11 11 10 10 11 10 10 11 12 13 13 12 13 13 13 13 13 13 13 13 13 13 13 13 12 12 12 12 13 12 11 11
3 1 1 4 2 4 4 1 3 3 3 3 4 5 5 7 7 7 6 3 2 1 2 2 1 6 1 1 2 2 3 7 9 14 16 17 18 18 18 17 17 18 19 20 20 17 15 15 13 11 11 11 10 10 10 10 8 8 7 6 8 11 11 9 10 10 10 10 10 10 9 9 9 10 12 13 12 12 12 12 12 12 12 12 12 12 12 11 11 11 11 11 12 12 11 11 10
5 3 0 3 2 2 2 2 3 3 3 4 4 4 3 5 5 6 6 1 1 3 3 4 1 3 2 2 0 3 1 7 11 16 18 19 19 18 18 16 16 18 19 19 19 18 15 14 13 11 11 11 10 10 9 9 7 6 5 6 10 12 10 9 9 9 10 10 9 8 8 8 7 8 11 12 12 12 12 11 12 12 12 12 12 11 11 10 10 10 10 11 11 11 10 10 10
4 4 1 2 2 1 3 3 3 3 4 4 4 4 4 5 3 4 5 1 1 6 4 3 3 3 4 2 1 2 2 11 17 19 20 20 19 18 17 15 15 18 20 19 19 18 15 15 13 12 12 11 11 10 10 8 6 5 6 9 12 12 10 9 9 9 10 9 8 7 7 8 7 8 10 11 11 11 11 11 11 11 11 10 10 10 10 9 9 8 9 11 11 10 9 9 9
3 3 2 3 3 1 3 3 4 4 5 4 2 3 5 6 5 3 3 2 1 4 3 1 3 3 4 2 2 2 6 17 20 22 21 21 19 18 16 15 15 16 19 19 19 18 16 15 13 13 13 13 12 11 9 7 6 5 9 12 12 12 10 10 10 9 10 9 9 7 7 8 8 7 7 8 9 9 10 10 10 10 10 9 9 8 8 8 8 7 7 9 10 9 9 8 7
1 2 4 4 2 3 3 3 5 5 6 3 1 3 4 6 4 3 3 4 2 2 3 2 3 4 4 0 2 1 9 19 20 23 23 21 20 18 16 15 15 15 17 19 19 18 16 15 14 13 13 13 12 10 9 7 6 5 10 14 12 13 13 12 11 10 10 9 9 9 9 8 8 6 5 5 6 7 8 9 9 9 9 8 7 6 6 6 7 6 7 7 8 8 8 7 6
2 1 4 3 3 3 2 2 4 5 5 3 3 2 5 6 3 6 6 4 4 4 5 5 5 5 3 2 2 1 10 17 19 24 24 22 21 18 16 15 16 16 17 18 19 18 17 15 14 13 12 12 12 10 8 7 6 6 11 14 13 14 14 13 12 11 11 10 9 10 9 8 7 7 6 5 5 6 7 9 10 9 7 7 6 6 5 5 6 6 6 5 5 6 6 6 5
2 2 4 2 1 2 3 1 3 1 3 5 2 3 4 3 4 6 7 4 6 5 3 5 7 4 2 1 1 2 11 17 19 25 24 23 21 18 17 16 16 17 17 18 19 18 17 16 15 13 11 11 11 9 8 7 8 8 10 12 12 13 13 12 11 10 11 9 8 8 8 6 6 7 6 5 5 5 7 8 7 6 5 5 4 4 4 5 7 6 6 5 5 4 4 4 3
2 2 3 4 2 1 3 1 1 2 3 5 3 5 4 1 4 6 6 7 6 5 1 3 6 2 3 5 4 7 15 20 21 25 25 23 21 19 18 16 16 17 17 18 18 18 17 16 15 13 11 11 10 8 7 7 9 10 10 10 10 11 11 9 9 9 10 8 6 7 8 6 5 5 4 4 4 4 5 4 4 5 4 3 3 2 2 5 6 6 6 5 5 4 4 3 2
2 3 4 3 1 1 3 2 1 2 4 5 2 4 6 2 3 4 4 6 2 2 3 3 3 0 5 7 5 12 21 23 23 24 24 23 21 19 18 17 17 16 16 17 17 17 17 16 15 13 12 11 9 8 8 8 9 11 9 8 8 9 10 9 9 9 9 8 5 6 7 7 6 5 4 3 3 3 2 1 3 4 4 3 3 3 3 3 5 5 5 4 4 4 4 4 3
1 3 3 2 2 2 3 4 3 3 5 4 3 3 8 3 0 2 0 5 3 2 2 3 2 0 5 4 4 15 25 25 25 24 23 23 21 18 17 17 17 15 15 16 16 17 18 16 16 14 13 12 10 9 8 9 10 11 10 8 8 8 9 9 10 10 9 8 6 5 5 6 5 5 5 4 3 2 1 1 2 3 3 3 2 2 3 3 3 3 3 4 4 4 5 4 4
3 3 2 1 3 3 4 6 6 4 2 3 4 4 8 5 2 2 1 5 4 1 3 3 3 2 3 5 2 20 27 26 26 24 23 22 21 18 16 16 17 17 16 16 16 17 18 17 16 15 14 14 11 10 9 10 11 12 11 9 9 8 8 8 9 10 9 8 7 6 5 5 4 5 5 4 3 2 2 2 2 3 3 2 1 1 2 2 3 3 3 3 3 4 5 5 5
2 2 1 3 4 4 4 5 5 3 1 2 4 3 5 6 5 4 3 1 2 3 5 4 4 5 1 2 12 24 27 27 26 25 24 22 22 20 18 16 18 20 20 20 19 18 19 18 18 17 16 15 13 12 10 10 11 12 11 10 10 9 8 8 8 9 9 8 7 6 5 4 4 4 4 4 3 2 2 2 2 2 3 2 1 0 1 2 2 2 1 2 2 3 4 5 5
2 2 1 3 4 4 4 4 5 5 1 2 3 1 2 4 5 4 4 3 2 6 6 3 6 6 2 5 16 23 25 25 25 26 25 23 23 23 22 20 21 25 24 23 22 20 20 20 19 18 17 17 16 14 12 11 11 11 11 10 10 9 8 8 8 8 9 8 8 7 6 5 4 3 3 2 1 1 1 1 2 3 3 3 1 0 0 1 1 1 1 1 1 1 2 3 4
1 2 2 3 2 2 4 4 5 5 3 1 2 3 2 4 3 3 7 5 4 8 9 9 10 8 7 7 14 21 22 22 22 24 25 24 23 22 23 22 23 26 26 24 23 22 21 20 20 19 19 18 17 16 14 13 12 11 11 11 10 9 9 9 9 9 9 9 8 8 6 5 4 3 2 1 1 1 2 2 3 4 4 3 2 1 0 1 1 0 1 1 1 2 3 4 4
1 3 4 3 2 2 5 1 2 3 1 2 3 3 4 3 1 4 10 8 7 6 9 10 9 10 12 13 15 18 19 19 20 21 24 25 23 21 20 18 19 22 24 26 25 24 22 21 20 20 20 19 18 17 16 15 13 13 12 11 11 10 10 10 10 10 9 10 9 8 7 6 4 3 2 1 1 2 2 2 3 3 4 4 4 2 1 1 2 2 2 2 3 4 5 5 6
1 3 3 2 2 3 5 3 2 1 3 3 4 4 3 4 3 4 9 10 5 2 6 9 8 10 15 17 17 16 16 18 20 22 24 26 24 22 20 19 19 23 26 27 26 25 23 22 21 20 20 20 19 18 17 16 15 14 13 12 12 11 11 11 11 11 10 10 9 8 7 6 4 3 2 0 1 2 2 3 2 2 3 4 4 4 2 2 4 3 3 4 5 6 7 8 8
2 3 4 3 0 3 5 4 3 1 4 6 3 2 4 8 5 1 7 11 2 5 4 7 9 11 14 15 15 16 18 20 21 23 24 26 26 24 22 22 23 25 27 28 28 26 25 24 22 22 21 20 19 18 18 17 16 15 14 14 13 13 12 12 11 11 10 10 9 8 7 6 5 4 3 1 1 2 2 3 3 2 3 3 4 4 4 4 4 5 4 5 7 8 9 9 10
1 3 5 5 4 5 5 6 5 4 6 4 2 3 5 8 5 2 9 10 3 5 2 6 10 12 12 12 13 14 16 19 20 22 23 25 26 25 23 23 23 23 25 29 29 28 27 25 23 23 22 21 20 19 19 18 17 16 16 16 15 14 14 12 11 11 11 10 10 9 8 7 6 5 4 3 3 3 3 4 4 4 4 4 4 4 5 5 5 6 6 7 8 9 10 10 10
1 2 7 7 7 7 5 6 5 4 5 2 5 6 5 3 2 3 10 8 3 2 4 6 8 10 10 10 12 13 14 18 21 21 23 23 24 25 24 23 22 23 26 28 29 29 28 26 25 24 23 22 21 20 20 19 18 17 17 16 15 15 15 13 12 12 12 12 11 10 9 7 6 6 5 5 5 4 4 5 5 6 6 6 7 6 6 7 7 8 8 9 9 10 11 11 12
1 2 8 8 8 8 2 3 4 3 4 5 7 6 4 2 0 5 6 3 6 6 5 4 7 9 11 9 10 14 15 19 22 21 19 20 23 25 26 25 24 25 25 25 28 30 28 27 27 25 24 23 22 21 20 19 18 18 17 16 16 16 15 14 14 14 13 13 13 12 11 9 7 7 6 6 6 6 5 6 6 7 8 8 9 9 8 9 9 10 10 11 11 11 12 12 13
1 3 7 8 9 8 2 4 6 2 3 5 6 3 3 2 1 8 5 1 4 7 6 5 7 8 9 10 9 11 15 18 21 19 20 23 25 27 27 27 27 27 26 26 29 29 29 29 28 26 25 24 23 22 20 20 19 18 17 16 16 16 14 14 14 14 14 13 13 12 12 11 10 8 7 7 7 7 6 6 7 8 9 9 10 10 10 10 10 11 11 12 12 13 13 13 14
1 5 4 8 11 9 5 4 3 2 3 5 6 1 3 3 7 9 3 1 3 6 6 5 7 7 7 9 7 9 13 16 18 20 25 27 26 27 29 30 30 29 28 29 29 29 30 29 29 27 26 25 24 23 21 20 19 17 16 15 15 15 15 15 14 14 14 13 12 11 11 11 10 8 7 7 7 7 7 8 9 9 10 10 11 11 12 12 12 12 12 13 13 15 16 15 15
2 4 3 3 7 8 5 1 1 3 3 4 5 3 5 8 13 7 2 4 6 6 5 5 6 6 6 7 7 8 11 14 18 24 28 27 27 28 29 30 32 32 31 30 30 30 31 30 29 29 27 26 25 24 23 21 20 18 16 15 14 15 16 16 15 13 12 12 12 11 11 11 10 9 7 7 7 7 8 9 10 10 11 11 12 12 12 12 13 14 14 14 14 16 18 17 18
2 2 1 1 1 5 5 1 3 4 3 3 5 4 6 9 12 6 3 5 7 8 7 7 7 6 6 6 8 8 10 16 22 26 28 26 27 27 28 29 31 32 32 32 32 31 31 30 30 30 29 28 26 25 24 23 21 18 17 16 16 15 16 16 16 15 13 13 13 13 12 12 11 10 9 8 8 8 9 9 10 10 9 10 11 12 12 12 13 14 14 15 16 19 20 19 20
2 2 2 2 3 5 7 2 5 4 1 3 5 4 6 8 9 6 4 5 7 8 8 7 8 7 7 7 8 8 8 15 21 23 25 26 27 27 29 30 30 32 33 34 33 32 32 31 31 31 31 29 28 27 25 24 22 20 19 18 17 17 17 17 17 16 15 14 14 14 13 13 12 11 11 11 10 9 9 9 10 10 10 11 12 13 13 11 11 12 13 13 16 19 21 20 19
1 1 1 1 2 3 6 3 3 3 1 0 3 3 4 6 6 5 2 7 7 7 8 8 8 8 8 6 7 7 7 10 15 20 25 26 28 29 29 31 32 33 34 34 33 32 32 32 32 32 32 31 29 28 27 26 25 23 22 20 19 19 19 19 18 17 16 16 15 15 14 13 13 12 12 13 13 12 10 9 10 11 11 11 12 12 13 13 13 15 15 15 17 19 20 19 18
2 2 1 2 1 2 5 5 2 0 0 2 4 4 6 7 6 6 2 5 7 8 10 9 8 7 7 6 7 7 8 8 11 20 27 28 29 29 30 31 32 33 33 34 34 33 33 32 32 32 32 32 30 29 28 27 26 24 23 23 22 21 21 20 19 18 17 16 16 16 15 15 14 13 13 13 14 13 13 12 11 10 10 10 10 10 10 12 13 14 16 16 17 18 18 18 18
3 3 2 1 2 4 6 6 2 1 1 4 5 5 10 11 9 7 3 4 7 9 8 5 7 7 7 7 8 8 9 9 13 22 27 29 29 29 30 30 30 32 33 33 33 33 33 32 32 32 32 32 31 30 29 28 27 26 26 25 25 24 23 21 20 19 17 17 17 17 17 17 15 14 14 13 13 14 15 15 13 13 12 10 10 9 10 12 11 11 13 14 15 16 17 18 20
8 6 5 4 5 6 7 6 4 2 3 6 7 6 10 12 12 10 4 4 7 7 6 5 6 7 7 7 7 9 9 11 17 22 23 25 27 29 30 30 30 31 32 33 33 33 33 32 32 33 33 33 32 31 29 29 29 29 29 28 28 27 26 24 23 21 19 18 17 17 17 16 14 13 13 13 13 14 15 15 15 16 15 13 14 13 12 12 10 12 14 14 15 16 17 19 20
8 6 6 6 5 6 5 4 5 2 2 7 7 8 11 12 12 10 4 4 6 7 7 9 8 7 8 8 8 10 10 13 16 18 19 22 25 27 28 29 29 29 31 32 33 34 34 34 33 34 34 33 33 32 31 31 31 30 29 29 29 28 26 25 24 23 21 19 18 17 17 16 16 15 15 14 14 15 15 17 17 16 16 16 17 16 14 13 12 15 15 16 17 18 19 20 20
7 5 4 4 6 6 5 5 6 2 1 6 5 7 12 12 12 7 5 5 7 10 11 12 11 9 7 7 10 11 10 11 11 13 17 21 24 26 27 28 29 30 31 33 34 35 35 35 35 35 33 33 34 34 33 33 32 31 29 29 29 27 26 26 25 24 23 21 20 18 18 18 16 15 16 15 15 16 16 16 17 17 16 16 17 17 16 16 15 16 16 17 18 18 20 20 21
5 3 3 3 3 3 6 6 5 2 2 5 4 5 10 12 13 8 6 7 8 9 11 11 10 8 7 9 11 10 9 9 9 10 15 20 24 25 27 28 30 32 33 33 34 35 35 35 36 35 34 34 34 34 35 34 33 32 30 29 27 26 26 26 25 24 23 23 22 19 18 18 15 13 14 15 15 15 14 14 15 15 13 13 14 14 14 14 15 15 15 15 16 17 18 17 17
5 4 3 3 1 1 5 3 5 3 2 3 4 4 7 9 10 9 7 9 7 6 9 9 8 9 11 11 8 8 11 11 10 9 12 16 20 23 26 29 31 33 32 33 34 35 35 36 37 36 36 35 35 35 35 34 33 30 29 28 26 24 24 24 24 24 23 23 21 19 18 18 17 14 13 14 13 14 13 11 11 11 11 12 13 12 11 13 16 16 15 14 13 15 14 12 11
6 7 6 4 2 2 4 4 6 5 2 1 3 4 6 7 9 10 6 6 7 6 7 8 8 10 10 7 7 9 11 11 10 10 10 13 18 22 26 29 30 31 32 34 36 36 36 37 37 37 37 36 36 35 35 34 33 30 28 25 22 21 21 21 20 21 21 20 19 19 18 18 18 16 14 13 12 13 14 13 14 14 12 11 11 11 12 14 16 16 14 12 9 8 9 8 8
5 7 9 8 5 3 5 6 7 5 3 2 1 4 7 5 6 10 6 4 7 6 7 10 10 10 8 7 10 11 10 10 10 11 10 12 18 21 24 27 28 30 34 36 37 37 37 37 38 38 37 37 37 36 35 34 34 32 29 25 23 21 20 21 21 20 19 19 19 18 17 16 16 16 17 15 12 12 12 13 15 15 12 12 12 13 15 16 14 11 8 6 3 2 4 5 6
3 5 9 9 7 4 4 6 4 1 5 4 1 4 7 6 6 9 6 6 9 8 8 11 10 8 8 9 11 11 11 11 10 10 10 12 17 19 22 27 29 32 36 37 36 36 36 37 37 38 38 38 37 36 35 34 34 33 32 30 28 26 24 24 23 22 21 20 19 16 13 13 14 15 15 12 13 15 15 15 14 12 11 12 12 11 11 9 5 3 2 2 2 2 3 4 6
3 6 12 11 9 4 3 5 4 3 4 7 3 2 4 7 8 6 2 5 10 9 10 10 9 9 9 10 12 11 12 11 10 10 10 12 17 21 24 29 33 35 36 35 35 35 36 37 37 37 38 38 38 36 35 35 35 34 33 32 30 30 28 27 25 22 21 20 18 15 12 11 12 12 12 11 14 15 13 12 10 7 6 4 4 4 2 1 1 1 3 3 4 5 6 7 7
2 6 12 11 8 3 2 2 4 2 3 7 7 2 3 8 6 2 1 5 10 10 11 11 11 11 11 12 13 13 12 11 10 11 11 13 19 24 28 30 32 34 34 34 35 36 36 36 36 35 36 37 37 36 35 35 35 35 34 33 31 31 29 27 24 21 20 18 16 15 12 11 11 11 11 11 11 7 4 4 4 3 3 2 3 4 3 4 5 5 6 7 7 6 7 7 7
2 8 10 7 7 4 1 2 2 0 1 9 9 4 4 7 6 2 2 5 8 8 8 10 12 12 11 12 13 12 11 9 9 10 11 15 20 25 26 26 27 30 32 33 34 34 34 34 34 34 35 35 35 35 35 35 35 34 34 33 32 31 29 26 23 21 19 17 15 14 12 12 12 11 12 11 10 8 6 5 5 6 6 6 6 8 8 9 8 8 9 9 8 7 7 7 6
4 7 9 8 6 5 3 2 2 1 6 11 11 7 5 6 5 5 5 6 8 7 6 8 10 11 12 11 11 11 9 8 8 8 10 14 18 21 22 24 25 26 28 30 31 32 33 33 33 34 34 34 34 34 34 34 34 34 34 34 32 31 29 26 24 21 19 17 15 14 13 13 13 13 14 13 11 12 12 10 9 8 9 9 10 11 10 10 9 9 8 9 9 8 8 7 6
6 6 6 5 2 3 3 2 3 2 8 7 5 6 5 8 5 4 6 6 7 9 8 9 11 11 12 11 10 9 7 7 7 7 9 11 13 15 19 22 24 24 25 27 30 31 32 32 32 33 33 33 33 33 33 33 34 34 34 33 33 32 30 28 26 23 21 19 17 15 14 14 15 15 16 13 11 13 14 11 9 9 10 11 12 11 11 10 9 9 8 8 8 7 6 6 5
6 6 6 5 2 1 1 2 2 5 7 2 1 3 4 10 7 5 10 8 8 10 9 10 12 11 11 9 7 6 6 7 7 8 8 8 9 13 18 21 22 23 25 28 30 31 32 32 32 32 33 33 33 33 32 33 33 33 33 33 32 31 30 29 27 25 22 20 18 17 16 17 17 16 16 13 12 14 14 11 10 11 12 12 11 10 9 9 8 8 6 4 3 2 1 2 3
6 6 7 6 4 3 5 4 1 5 5 2 1 2 4 9 6 9 14 12 10 10 9 9 9 9 9 7 6 6 6 7 7 7 7 7 9 13 17 20 22 24 26 27 29 30 31 31 32 32 33 33 33 33 32 32 32 32 32 32 31 31 30 29 27 25 22 20 19 18 18 19 18 18 18 15 14 15 14 13 12 12 12 10 9 7 6 5 4 4 4 5 7 7 8 10 10
5 4 4 3 3 4 5 4 3 5 4 3 1 2 5 6 4 7 11 10 8 7 7 7 7 8 8 6 7 7 8 7 6 6 7 7 9 14 17 19 22 23 24 25 27 28 29 30 31 32 33 32 32 32 32 32 32 31 31 31 30 30 29 28 26 23 21 20 20 20 20 20 19 20 19 16 16 15 13 12 12 11 10 8 7 6 6 7 8 9 10 11 12 12 11 12 12
3 3 3 1 2 3 2 2 3 2 2 3 2 3 5 4 6 8 4 6 8 7 7 6 8 10 6 6 9 7 7 6 5 6 6 7 9 13 15 16 18 19 21 23 24 26 28 29 30 31 32 32 32 32 32 31 31 30 30 30 30 29 28 27 25 22 22 22 23 23 23 23 21 20 19 17 16 14 13 12 11 10 9 8 8 9 10 12 12 12 13 13 13 13 12 12 12
4 4 6 4 3 4 2 1 1 2 2 4 3 6 6 3 9 9 3 6 8 7 9 8 10 9 5 7 9 7 6 5 5 5 5 5 7 10 12 14 15 16 18 20 22 24 26 27 28 29 29 29 29 30 30 30 29 29 29 29 29 29 28 27 25 23 24 24 25 26 25 24 22 20 18 16 15 14 13 11 10 10 10 11 12 12 13 14 13 13 13 13 13 13 11 12 12
8 6 6 4 2 2 2 1 2 1 4 4 2 7 6 3 7 6 1 6 8 8 10 9 10 8 6 10 9 6 6 5 5 5 4 5 6 8 10 11 13 14 15 17 18 20 22 23 24 25 26 27 27 28 28 28 29 29 29 29 29 29 28 27 25 24 24 25 26 26 25 23 21 19 17 16 15 14 13 11 11 12 13 13 14 14 14 14 13 13 13 13 13 12 10 11 10
5 5 7 6 2 3 4 3 2 3 5 4 2 4 4 6 6 3 4 9 8 9 10 9 10 10 9 11 8 5 5 5 5 5 4 4 5 7 9 10 10 11 12 13 15 16 18 19 19 21 23 24 24 25 26 26 27 28 29 29 29 28 28 27 27 26 25 26 27 26 23 21 19 18 17 17 15 14 14 13 13 15 15 16 16 15 15 14 13 12 12 13 13 11 9 9 9
2 2 5 3 2 4 4 4 2 2 3 4 3 3 3 6 6 4 7 9 9 10 9 9 12 12 9 8 6 5 5 6 6 5 4 4 5 6 8 9 9 10 10 11 12 13 15 16 16 17 18 19 20 22 24 25 26 27 28 28 28 28 28 28 27 27 26 27 27 25 22 20 19 18 18 16 16 15 15 16 16 17 18 17 17 16 15 14 13 13 13 12 11 10 8 8 7
4 4 6 5 3 2 1 2 2 2 3 3 3 3 5 6 5 9 11 10 10 10 9 8 9 8 7 7 6 6 6 6 5 4 4 4 5 6 7 8 9 9 9 9 10 12 13 13 14 15 16 17 19 21 23 24 25 26 27 27 27 27 27 27 28 28 28 28 27 24 22 21 20 19 18 17 17 16 17 18 19 19 18 18 17 17 16 14 13 13 12 11 10 9 7 7 6
7 5 5 6 5 3 2 5 3 2 2 3 2 4 7 6 4 8 11 10 8 6 6 7 7 7 7 6 6 6 5 5 4 4 4 4 5 6 7 8 9 9 9 9 10 11 12 13 14 15 16 18 20 22 23 24 25 26 26 27 27 27 27 28 29 29 29 28 26 23 22 21 21 20 18 18 19 19 20 21 21 20 19 18 17 17 16 14 12 12 11 10 9 7 6 5 4
Wind_Direction
53 60 43 342 325 314 327 45 76 321 68 76 301 131 236 217 172 183 169 256 285 302 243 60 82 113 111 133 157 151 120 159 163 137 199 192 143 159 171 168 162 155 152 148 148 152 151 154 167 163 159 160 142 130 128 128 123 116 113 108 103 97 96 96 89 88 93 92 91 92 93 93 90 90 87 87 87 85 84 84 85 85 87 89 91 90 87 83 78 77 81 82 83 84 82 79 75
64 75 41 18 7 19 267 70 89 330 47 28 288 176 263 302 168 191 188 204 183 167 107 102 95 88 64 89 116 113 65 27 158 163 139 137 141 158 165 161 158 156 152 148 150 152 155 160 165 159 156 162 146 134 134 131 126 121 119 113 106 101 101 101 93 93 95 92 94 96 94 91 90 91 90 89 88 86 86 86 86 85 86 88 92 92 89 83 79 79 81 81 82 82 80 77 74
72 103 38 34 21 43 54 41 86 57 62 313 278 242 284 158 205 205 203 207 171 148 116 100 85 79 47 50 60 85 142 64 141 148 118 143 147 154 158 158 157 157 154 151 154 156 159 159 163 164 155 155 148 143 140 134 129 124 120 115 110 104 105 107 102 96 96 97 98 97 93 91 93 93 90 90 89 88 88 87 86 86 87 89 93 95 89 83 81 79 78 79 82 81 78 75 70
83 91 10 57 35 36 61 36 130 116 75 235 288 275 237 190 213 219 222 203 159 124 85 41 45 13 59 80 66 77 174 144 132 125 136 156 159 156 158 157 157 158 154 154 158 156 157 158 161 165 155 151 150 147 143 137 133 128 123 118 113 108 108 110 106 100 99 100 98 97 97 96 95 92 90 89 90 90 89 89 88 86 86 88 94 98 92 83 82 80 77 78 83 83 79 75 73
100 78 24 98 78 39 95 64 118 100 216 198 4 275 231 204 204 200 206 183 165 129 111 108 95 309 52 109 161 113 195 141 134 138 137 156 163 160 159 157 158 157 154 154 153 149 151 155 157 156 148 150 153 151 147 142 140 136 129 123 117 111 108 109 105 102 101 99 97 96 98 95 92 92 91 87 87 89 87 89 91 87 85 86 91 97 93 83 81 80 77 78 82 84 80 77 77
122 90 50 76 91 101 120 80 132 211 230 174 170 256 229 199 191 171 153 190 232 211 192 176 153 155 70 3 154 152 186 138 142 153 144 154 165 163 158 159 159 155 153 152 148 146 148 154 157 152 147 153 156 153 149 146 145 140 133 127 122 116 109 106 103 105 104 98 96 94 94 93 90 92 92 88 87 88 85 85 87 85 83 85 88 94 93 84 81 80 76 77 83 85 83 80 79
150 120 35 67 66 35 103 176 197 235 238 175 181 241 221 190 176 152 151 187 242 225 158 199 154 119 92 311 118 172 180 153 154 163 159 159 165 163 159 160 159 154 154 153 149 148 149 153 159 158 155 154 152 151 148 147 146 141 132 126 127 123 114 104 101 107 106 100 96 94 95 94 90 87 89 90 87 87 87 85 85 85 86 88 89 91 92 88 82 81 80 80 86 86 84 83 82
125 128 1 87 43 28 86 214 231 220 229 218 215 238 217 180 158 151 173 176 170 206 128 207 74 93 114 29 113 271 154 160 169 166 162 161 165 163 160 161 158 155 156 156 152 150 151 152 158 162 160 154 149 151 150 149 146 141 132 120 129 126 117 110 106 110 109 103 100 103 102 91 86 86 91 92 90 90 86 84 83 84 85 86 88 90 93 91 83 82 85 85 88 87 84 86 85
63 44 38 83 74 36 35 297 269 244 250 272 264 246 197 156 149 146 169 189 172 153 157 224 27 101 172 48 242 291 91 166 169 162 163 165 167 163 161 163 160 157 158 158 155 153 152 153 158 158 155 154 154 155 150 149 148 142 127 113 124 124 122 119 113 115 113 108 105 109 103 85 84 94 96 95 94 93 86 84 84 82 81 81 83 87 91 92 86 84 89 90 89 88 86 86 85
36 28 141 80 89 17 330 290 271 270 258 262 264 239 157 143 143 124 145 174 178 146 180 246 64 110 138 99 240 318 130 162 158 158 166 168 165 163 162 164 163 159 160 161 158 157 155 156 159 155 151 153 155 154 149 150 149 136 118 114 120 123 129 127 118 117 115 114 109 99 92 89 90 94 96 96 94 91 88 86 83 84 82 82 84 85 92 94 92 92 95 95 90 87 85 83 83
31 6 92 85 78 154 254 250 274 273 279 291 278 239 164 147 131 101 101 126 125 132 183 304 87 127 102 113 245 322 165 161 158 160 167 168 165 165 162 163 166 161 162 163 161 161 159 160 162 157 151 151 156 155 152 153 148 136 125 122 126 132 134 131 123 120 119 120 116 99 92 96 95 94 94 94 88 83 91 91 86 87 85 84 86 87 98 105 105 107 109 104 96 87 82 77 76
91 344 59 96 141 197 213 227 278 286 304 323 178 237 163 136 132 162 142 141 150 125 223 222 139 135 87 332 260 335 168 167 166 165 168 169 166 165 162 162 164 164 165 166 165 165 164 165 165 160 153 154 159 160 161 161 152 144 137 135 142 146 141 140 139 134 129 128 133 126 112 108 105 106 106 100 90 83 93 101 99 94 88 86 85 86 99 119 123 126 128 118 107 96 85 77 69
120 123 88 133 175 167 167 199 278 314 319 279 188 213 144 135 186 190 149 127 145 144 245 213 138 103 101 246 254 166 182 180 171 167 170 170 168 165 162 163 164 167 169 169 168 167 170 170 169 166 162 161 163 166 174 175 162 154 147 147 154 157 154 154 154 146 137 140 154 150 132 123 119 117 118 116 110 99 98 105 108 103 96 91 88 93 97 126 139 143 146 139 128 116 103 89 74
129 141 115 146 72 123 165 220 284 315 286 264 208 171 149 152 194 170 135 138 188 181 242 187 140 104 127 207 259 221 194 188 173 168 170 170 171 165 165 166 166 169 170 173 171 171 174 175 176 174 175 174 175 177 181 182 170 163 156 154 156 164 167 163 160 152 148 155 163 165 156 145 136 124 119 119 115 111 109 104 97 88 89 95 98 108 104 125 141 151 158 161 161 148 136 117 90
124 127 87 111 51 52 189 254 237 148 245 241 177 158 156 178 141 143 156 165 219 220 131 141 147 149 181 169 207 214 191 185 173 168 169 171 173 168 169 168 169 171 171 176 175 176 178 180 182 181 186 184 184 182 172 173 168 166 160 153 150 159 170 166 162 160 160 166 158 168 178 174 162 144 135 132 116 111 116 96 53 45 52 71 84 96 101 129 141 148 158 170 184 186 180 168 149
108 112 68 95 128 241 198 204 133 128 254 234 219 150 149 237 127 145 205 155 187 221 146 172 176 161 176 180 224 199 182 178 172 168 167 169 170 168 168 168 172 172 171 178 178 181 182 182 186 187 190 186 182 175 163 162 161 166 164 152 140 143 159 164 167 170 173 175 157 158 178 185 180 169 166 159 135 126 130 64 17 21 27 40 49 58 70 118 140 143 153 168 189 202 208 212 221
52 76 74 68 164 205 197 188 187 179 259 258 274 190 156 217 336 153 210 97 105 184 210 237 231 44 173 241 287 177 173 172 170 167 164 164 164 161 163 165 169 170 171 179 180 184 186 186 188 189 190 187 182 175 166 160 159 167 167 156 145 142 151 160 171 178 183 185 177 163 166 177 180 181 181 179 170 169 199 291 346 357 12 27 29 43 60 89 131 147 158 174 194 210 224 234 241
29 65 109 223 181 198 189 187 202 180 276 258 228 214 171 184 193 171 88 54 57 159 274 303 294 302 209 277 165 162 167 168 168 166 163 163 163 161 163 168 171 172 174 179 182 182 186 188 189 190 190 188 186 181 172 161 161 166 168 163 157 153 152 159 170 178 186 189 187 182 170 169 169 175 181 186 194 207 234 271 313 339 3 12 16 49 70 93 130 157 171 186 198 218 235 245 254
68 102 120 224 194 218 208 189 202 189 302 203 200 225 194 193 164 159 186 241 73 160 255 324 304 290 307 192 151 157 165 166 169 169 168 168 168 168 169 175 177 178 179 182 184 181 183 186 188 190 188 188 188 186 180 170 168 168 171 170 165 163 160 162 166 172 181 184 186 185 178 175 167 167 175 183 197 219 244 285 324 347 358 359 3 98 106 125 137 156 176 186 200 226 242 252 259
124 120 281 238 206 252 251 202 212 234 261 148 196 173 209 215 155 161 179 174 177 195 218 217 239 242 168 156 153 157 165 169 173 172 174 176 177 177 177 181 184 184 184 184 184 183 184 185 187 189 189 190 190 189 189 183 178 177 179 178 175 171 168 167 166 168 172 176 178 176 174 171 165 163 162 169 176 199 300 333 347 355 356 357 350 243 164 109 112 145 187 190 203 245 268 274 273
87 144 211 230 176 289 276 219 225 256 264 171 157 116 216 228 155 168 147 143 243 235 219 206 209 197 165 169 162 161 167 173 177 177 179 182 184 185 187 188 189 188 186 185 186 187 186 186 187 188 190 192 193 193 193 192 189 187 186 185 184 179 177 175 171 169 168 170 169 167 167 162 160 155 141 126 69 21 348 345 352 0 3 5 7 321 296 58 68 338 263 251 272 297 301 306 303
25 231 226 225 162 273 288 275 228 250 318 78 119 159 205 178 169 182 160 180 230 231 220 209 199 176 167 170 167 166 171 178 181 182 183 187 190 190 194 196 194 191 189 189 189 189 189 188 188 188 191 193 195 196 196 197 197 196 194 191 190 187 186 185 181 176 171 171 170 170 170 167 166 159 141 96 35 10 358 344 347 5 11 18 27 26 15 13 354 323 297 295 302 307 307 310 312
199 262 286 248 151 257 295 359 310 208 112 151 176 210 169 143 227 192 179 207 210 260 236 201 188 175 168 164 165 169 175 185 187 187 186 188 193 193 195 197 197 196 194 194 193 192 193 191 192 192 194 194 196 198 199 201 202 203 202 200 199 196 194 193 192 187 182 181 182 182 180 182 185 184 186 140 351 352 1 348 347 9 17 22 26 28 28 1 350 337 315 310 314 315 315 317 320
175 256 322 328 340 266 282 330 310 236 197 220 193 151 159 185 217 135 209 223 220 322 282 173 162 158 161 163 171 178 179 186 190 191 191 191 195 198 198 200 201 200 198 198 196 196 196 195 195 196 198 198 198 200 202 203 204 206 207 208 208 206 206 203 201 199 198 198 198 200 199 202 206 212 219 240 295 317 334 330 339 350 3 5 10 18 11 357 348 343 333 325 324 322 322 323 324
77 268 322 326 307 286 290 298 283 239 230 244 172 189 213 199 176 127 231 236 277 324 9 133 141 143 162 174 180 182 181 187 191 193 195 195 198 200 203 204 205 205 204 202 199 199 199 198 199 200 202 202 203 204 206 207 207 209 210 213 212 212 215 212 210 212 213 215 215 216 217 218 223 229 237 257 278 301 310 307 321 329 334 334 342 356 352 349 341 336 334 329 328 325 323 322 320
68 301 310 311 307 307 312 299 284 248 237 173 184 231 256 212 143 248 244 227 205 44 82 126 137 150 172 182 184 184 184 189 191 195 197 198 199 202 206 207 207 210 210 206 203 203 202 201 203 204 206 206 207 209 211 212 211 213 215 216 217 218 219 218 219 221 224 227 229 232 234 235 239 246 257 269 279 294 302 304 315 320 323 322 325 334 335 336 336 334 331 330 330 327 324 323 320
125 332 309 298 300 304 307 287 291 281 252 185 193 234 259 299 70 245 258 198 147 108 107 151 153 168 179 182 189 188 191 194 192 192 195 198 200 202 206 207 209 213 214 211 207 206 204 204 206 207 208 208 209 213 216 217 217 219 221 221 222 223 221 220 222 225 228 231 235 240 244 250 255 262 269 278 287 290 290 299 309 315 320 323 320 321 321 323 326 326 326 326 327 322 319 322 323
2 11 335 315 313 302 243 261 280 269 248 189 176 226 267 346 236 229 248 176 158 134 145 179 177 182 183 184 189 190 198 199 193 190 194 201 202 202 205 206 209 213 215 215 211 208 208 207 208 208 208 208 209 214 218 219 221 223 224 226 228 228 226 223 224 225 227 230 236 240 246 253 259 268 275 284 293 292 289 294 300 306 312 316 314 313 312 311 313 316 319 320 319 315 315 320 321
39 55 23 325 324 308 264 245 247 188 218 181 152 247 277 221 227 234 225 144 135 131 160 190 195 194 186 187 188 195 202 197 194 200 205 206 206 205 206 208 210 214 216 217 215 210 210 210 210 210 209 209 211 214 217 218 221 224 226 229 232 232 228 226 226 224 224 226 231 237 244 250 255 262 271 285 293 292 290 292 300 308 309 306 304 305 306 304 305 306 310 312 313 312 313 319 318
135 74 69 338 331 303 283 272 171 163 189 175 158 248 262 231 233 237 137 145 129 139 187 196 203 206 194 191 191 201 200 195 200 208 211 211 210 210 210 210 212 215 218 219 219 215 213 213 213 213 212 212 213 215 217 219 222 224 228 231 233 234 231 230 228 226 224 225 228 234 239 244 250 256 263 277 286 288 290 294 302 308 307 303 299 298 297 299 301 303 306 307 311 312 310 314 313
132 92 96 99 262 272 293 344 164 176 181 142 148 229 260 249 245 234 168 163 156 180 202 194 206 210 201 200 197 204 202 203 210 213 214 214 215 215 214 214 214 216 218 220 221 219 217 217 217 217 217 217 217 218 219 221 224 226 230 232 233 235 234 234 233 232 231 231 235 237 240 244 249 254 260 265 274 284 287 291 296 297 301 305 306 302 295 294 294 295 299 301 308 310 308 310 309
99 181 192 166 202 264 304 299 182 203 283 113 142 213 266 266 257 244 191 175 178 200 208 199 206 205 205 208 204 210 210 213 219 219 218 218 218 218 218 217 217 217 219 221 222 221 220 220 221 221 222 221 220 222 223 224 227 229 232 234 235 238 238 238 238 238 239 238 240 241 243 247 250 255 257 258 262 266 274 284 288 291 300 311 313 306 295 292 295 294 293 296 303 304 304 305 307
49 184 186 159 199 295 316 295 210 223 322 173 187 218 266 275 279 297 225 183 185 206 221 212 208 209 208 210 210 214 216 219 226 226 223 221 220 221 220 220 220 220 221 222 223 222 222 222 222 224 225 226 226 225 227 227 229 231 235 237 238 240 241 243 243 243 243 243 244 246 247 249 253 260 261 262 262 259 263 275 284 290 295 305 314 312 298 285 289 293 290 291 294 296 298 302 308
41 54 47 345 348 326 303 304 310 307 51 231 220 222 246 263 290 319 300 188 190 209 221 216 211 214 209 210 217 217 218 219 224 225 223 222 222 222 222 223 222 223 223 223 224 224 226 226 225 226 228 230 230 229 230 230 232 234 236 239 240 242 243 245 246 246 248 248 249 251 253 254 256 260 263 264 266 262 259 263 280 291 292 300 305 316 320 299 289 291 291 288 287 290 295 300 305
148 136 128 300 265 239 255 283 296 173 243 228 202 224 252 262 275 283 256 184 203 224 235 234 220 217 215 214 217 219 222 226 227 225 223 222 223 223 224 225 225 225 225 225 225 226 227 228 228 229 229 230 231 232 232 233 234 235 235 237 239 241 242 243 244 245 248 250 251 254 256 256 256 258 260 261 266 266 259 261 278 288 288 295 288 296 328 320 303 298 298 295 289 291 294 295 298
156 160 166 191 232 241 243 260 264 223 246 238 205 217 246 253 259 258 233 176 206 245 285 275 233 219 221 220 222 226 226 233 234 230 226 224 224 225 225 226 226 227 227 227 227 227 227 228 229 229 229 230 230 231 231 231 231 232 232 234 235 237 239 241 242 243 245 246 248 254 256 256 259 262 264 265 266 267 264 263 274 282 280 278 278 286 308 313 306 300 297 297 296 295 295 297 298
134 145 178 196 225 255 261 264 287 332 265 248 217 217 240 244 251 248 202 156 206 238 256 253 241 224 219 220 224 227 229 236 239 236 232 229 228 227 226 226 227 227 229 228 227 228 228 228 228 228 228 228 229 229 229 228 227 227 228 230 232 235 237 239 240 240 240 244 246 250 255 258 260 259 261 265 264 262 264 262 265 270 268 268 277 287 293 291 290 293 293 290 293 295 299 302 301
115 131 169 213 224 249 272 270 288 344 158 262 249 232 247 249 253 247 148 157 217 220 223 236 237 230 222 221 227 229 234 242 242 238 232 229 228 227 226 224 224 225 227 227 227 228 228 229 229 229 229 227 228 230 230 230 230 229 230 231 233 236 239 240 241 242 241 245 248 249 253 259 264 259 253 258 262 262 263 263 263 264 265 271 280 282 281 281 282 289 294 290 288 293 299 304 304
118 113 133 229 232 273 274 267 302 327 181 274 282 238 253 258 255 242 173 193 232 219 218 231 229 230 228 222 227 228 237 244 235 231 229 224 224 223 222 222 222 224 226 226 226 227 228 228 229 229 229 229 229 230 230 232 234 235 235 237 239 239 242 243 245 246 243 244 248 249 251 257 267 265 257 260 265 262 259 265 270 268 269 273 277 277 276 279 282 288 295 293 292 296 300 308 312
158 146 152 228 248 342 267 279 347 319 230 287 290 253 261 266 262 253 210 210 245 235 226 237 223 222 227 223 228 225 231 240 233 231 228 222 221 219 218 219 220 222 223 224 224 225 226 227 228 228 229 230 230 230 231 233 235 236 236 238 240 240 242 244 244 244 243 244 244 246 248 253 258 260 262 267 269 265 256 258 266 262 265 270 269 269 270 278 285 289 293 295 299 303 304 311 324
189 182 184 198 200 283 291 335 339 309 284 289 303 300 273 255 256 260 235 210 250 250 231 246 236 228 233 230 233 227 229 235 232 234 227 216 217 217 217 218 219 218 219 222 223 223 224 226 228 229 229 230 231 231 232 231 231 230 229 228 230 232 234 236 236 236 238 240 241 246 250 250 251 252 258 260 266 274 265 259 263 259 262 269 264 263 268 279 287 289 292 290 294 311 316 320 333
209 211 196 177 177 251 307 338 351 339 305 293 301 276 268 277 263 254 248 220 242 240 223 237 238 231 231 231 235 233 232 233 230 234 227 215 218 219 219 219 217 216 219 222 223 223 224 226 228 229 229 230 231 231 231 229 227 225 223 220 218 220 222 226 229 231 235 240 245 253 256 251 247 250 255 254 258 270 263 261 268 264 260 258 259 267 273 279 281 281 290 284 281 330 339 349 354
223 206 171 168 184 217 302 323 341 291 274 299 319 240 267 304 270 242 243 238 239 234 226 235 238 233 221 224 235 233 232 232 230 236 228 215 216 216 218 219 216 218 223 224 223 223 224 226 227 227 228 230 230 231 230 228 225 224 223 223 222 220 221 225 230 234 239 244 249 256 260 255 250 252 256 253 254 258 255 259 268 267 263 259 262 271 271 273 271 268 318 333 339 335 322 341 341
214 168 150 170 193 204 295 306 270 239 289 294 265 208 268 275 253 238 237 253 256 250 242 244 244 237 226 228 235 232 231 228 222 229 225 216 215 214 216 218 218 221 224 223 221 222 223 225 226 227 228 229 230 230 229 227 224 223 223 224 225 226 228 230 232 235 239 244 248 251 253 253 248 248 248 244 250 254 248 249 255 257 259 255 262 274 271 283 303 319 323 318 315 311 305 308 309
196 146 142 163 167 159 293 281 258 283 346 281 257 167 232 259 265 301 123 233 252 249 242 245 244 237 231 231 236 235 234 228 218 223 223 218 217 217 219 220 222 223 222 221 221 222 223 223 224 226 226 227 228 228 228 227 226 225 224 223 224 228 231 233 233 234 237 242 246 245 245 246 237 235 239 237 242 246 226 228 235 231 242 274 293 297 301 291 288 292 294 296 299 302 306 301 296
149 120 105 106 100 84 106 148 213 332 276 253 241 194 219 260 265 243 220 233 240 245 246 243 241 239 235 234 237 237 237 231 222 224 227 223 221 222 223 223 224 224 222 222 222 222 221 221 221 223 224 226 227 227 227 227 226 225 224 224 224 226 227 228 229 230 233 236 238 235 237 237 226 227 233 224 224 237 249 264 262 253 266 286 292 291 287 279 275 277 278 280 281 283 292 291 288
114 101 80 68 60 50 64 82 85 83 262 246 224 200 217 263 250 201 222 219 204 221 246 249 248 246 242 240 239 238 237 233 225 229 233 229 226 226 224 223 225 225 223 222 220 220 220 219 219 220 223 225 225 225 225 225 225 224 224 225 225 226 225 224 224 224 226 227 228 229 230 228 219 218 218 213 227 246 255 265 263 258 270 279 282 283 277 269 265 263 262 262 263 266 271 272 272
79 86 93 89 46 32 40 17 83 185 255 250 205 179 198 245 238 199 247 243 207 214 219 229 238 240 241 241 242 244 246 244 234 230 232 227 224 220 217 219 220 219 220 219 218 219 219 218 218 218 221 223 223 224 223 223 224 224 224 225 225 226 226 224 223 224 224 223 221 221 220 215 209 206 205 210 235 242 239 243 244 249 264 267 268 266 259 255 253 251 254 256 257 258 255 258 262
94 104 125 128 118 94 171 211 152 222 249 296 73 136 198 247 244 242 264 265 248 236 219 221 230 234 240 244 248 255 261 257 245 233 226 218 215 211 208 209 211 211 214 215 216 216 216 217 217 217 219 221 221 222 222 222 222 223 223 224 225 226 225 225 225 225 224 222 217 214 213 205 200 203 203 211 231 227 221 229 238 250 258 254 251 249 245 247 245 244 246 239 223 196 121 81 75
141 137 151 157 148 164 201 197 194 244 250 307 34 125 245 267 256 237 242 242 240 238 234 240 243 242 247 255 265 270 267 254 246 242 232 220 216 210 204 203 204 207 210 212 212 213 213 214 214 215 218 219 220 220 220 221 221 222 223 224 224 224 224 224 225 224 222 220 216 214 214 208 206 209 207 209 219 216 216 231 242 248 246 239 236 231 224 220 204 180 146 121 106 96 85 82 81
157 137 134 156 158 176 197 190 210 244 260 287 312 147 218 237 252 238 233 245 258 246 245 257 263 256 253 273 278 269 266 255 240 242 236 227 222 213 207 204 203 205 207 208 209 210 210 211 213 214 215 217 217 218 218 219 220 221 221 222 223 223 223 222 221 222 222 220 217 214 213 212 212 210 205 205 210 210 217 230 237 236 229 221 209 185 161 141 127 120 113 105 97 94 90 88 86
172 131 123 227 185 154 155 190 208 224 273 267 225 223 223 217 275 279 266 277 275 255 253 259 262 260 257 272 268 256 259 255 238 237 235 229 219 211 208 204 202 202 203 205 207 207 208 210 212 213 214 216 216 216 217 217 218 219 219 220 220 220 220 218 215 218 221 219 215 211 208 207 207 205 202 204 206 210 220 226 224 215 200 185 166 148 135 126 119 114 110 104 99 97 96 94 90
157 169 186 197 155 105 80 236 6 55 247 247 190 241 277 304 280 285 317 293 276 259 254 245 248 259 266 261 257 251 252 246 232 230 232 229 212 204 202 197 194 195 197 202 204 204 207 209 211 211 212 214 214 215 216 216 216 216 216 217 216 216 215 213 213 217 217 214 209 205 201 198 198 200 203 206 208 212 216 214 204 185 168 157 146 136 129 123 119 116 112 108 104 102 102 99 94
152 191 187 131 86 71 91 230 343 76 238 267 200 233 260 255 262 288 296 259 271 262 248 245 253 263 261 252 249 246 246 243 243 239 236 238 218 202 197 190 189 191 194 199 201 202 205 207 210 211 211 212 212 213 213 214 214 213 213 213 212 212 213 212 213 216 213 207 200 196 194 192 192 197 204 206 208 209 204 194 182 169 158 150 141 134 128 123 122 121 117 114 111 109 108 102 95
153 182 165 132 177 203 156 176 215 192 232 282 278 250 246 217 242 285 212 223 244 251 242 242 251 245 239 246 249 252 251 246 241 233 230 237 222 204 192 184 184 188 193 199 200 202 205 207 211 213 214 214 212 210 210 210 211 211 211 210 209 209 209 209 209 207 204 198 193 190 189 191 194 199 204 204 202 199 189 178 171 163 154 146 140 135 129 127 127 124 122 121 117 114 111 104 96
54 125 175 165 185 193 175 174 170 171 217 270 289 295 260 230 223 221 231 232 232 241 242 233 237 239 239 245 245 239 233 228 225 218 223 232 222 204 187 182 184 188 196 201 203 207 207 208 211 211 213 211 208 207 206 205 205 206 206 204 204 204 205 205 202 197 195 192 190 189 192 198 201 201 200 198 193 187 178 170 163 157 151 145 141 136 132 132 134 132 129 126 120 116 110 100 92
176 170 190 194 178 141 153 193 163 130 183 233 267 282 268 250 212 202 225 236 228 232 241 240 246 252 250 245 238 234 225 223 226 218 218 226 215 198 182 182 182 186 199 207 212 216 213 209 207 206 205 202 200 200 199 199 198 199 199 197 196 198 197 196 192 189 190 189 188 191 198 203 202 197 194 189 181 175 170 163 156 152 148 144 142 139 137 141 141 137 132 125 119 115 106 96 89
183 182 193 194 185 144 155 214 196 117 181 195 209 271 267 256 222 208 219 230 234 235 241 253 266 265 256 247 232 231 227 219 222 217 214 215 201 186 179 183 183 187 197 204 209 212 210 207 201 200 200 197 196 194 192 193 192 191 191 190 189 189 188 187 185 184 186 187 189 195 201 201 194 189 185 180 174 168 163 158 154 151 148 146 146 144 143 145 143 137 130 123 120 116 107 97 80